N13FA KBTR-KJAN

Flight info

Callsign N13FA
Flight time 0h 43m
Altitude 15000
Route AROGT MCB V9 JOTEK
Aircraft TBM9/L-SDFGRWY/S

Departure

Time 2026-05-04 20:08
Airport Baton Rouge Metropolitan Airport (KBTR)

Arrival

Time 2026-05-04 20:51
Airport Jackson-Medgar Wiley Evers International Airport (KJAN)
Time Latitude Longitude Altitude Speed Heading
2026-05-04 20:00 30.53111 -91.14568 73 ft 0 kts 313°
2026-05-04 20:02 30.53116 -91.14575 73 ft 4 kts 308°
2026-05-04 20:02 30.53170 -91.14568 73 ft 12 kts 44°
2026-05-04 20:02 30.53233 -91.14497 72 ft 13 kts 46°
2026-05-04 20:03 30.53299 -91.14424 77 ft 14 kts 42°
2026-05-04 20:03 30.53373 -91.14350 76 ft 13 kts 13°
2026-05-04 20:03 30.53444 -91.14410 77 ft 14 kts 314°
2026-05-04 20:03 30.53516 -91.14498 67 ft 17 kts 314°
2026-05-04 20:04 30.53602 -91.14597 75 ft 18 kts 324°
2026-05-04 20:04 30.53711 -91.14549 75 ft 19 kts 36°
2026-05-04 20:04 30.53810 -91.14431 73 ft 22 kts 45°
2026-05-04 20:04 30.53915 -91.14315 72 ft 11 kts 48°
2026-05-04 20:05 30.53973 -91.14253 68 ft 12 kts 45°
2026-05-04 20:05 30.53998 -91.14206 73 ft 0 kts 88°
2026-05-04 20:06 30.53983 -91.14166 69 ft 8 kts 133°
2026-05-04 20:06 30.53928 -91.14136 65 ft 10 kts 222°
2026-05-04 20:07 30.53911 -91.14156 68 ft 0 kts 222°
2026-05-04 20:07 30.53910 -91.14157 68 ft 2 kts 223°
2026-05-04 20:07 30.53723 -91.14362 74 ft 70 kts 223°
2026-05-04 20:07 30.53256 -91.14863 261 ft 106 kts 222°
2026-05-04 20:08 30.52656 -91.15533 653 ft 131 kts 225°
2026-05-04 20:08 30.51845 -91.15992 1261 ft 133 kts 179°
2026-05-04 20:08 30.51101 -91.15406 1939 ft 139 kts 120°
2026-05-04 20:08 30.51150 -91.14292 2562 ft 149 kts 62°
2026-05-04 20:09 30.51784 -91.13312 3132 ft 152 kts 65°
2026-05-04 20:09 30.52122 -91.12166 3785 ft 153 kts 76°
2026-05-04 20:09 30.52483 -91.10996 4430 ft 155 kts 73°
2026-05-04 20:09 30.52891 -91.09833 5086 ft 156 kts 70°
2026-05-04 20:10 30.53321 -91.08663 5653 ft 160 kts 70°
2026-05-04 20:10 30.53746 -91.07457 6253 ft 164 kts 70°
2026-05-04 20:10 30.54215 -91.06235 6814 ft 166 kts 68°
2026-05-04 20:10 30.54681 -91.04998 7404 ft 168 kts 68°
2026-05-04 20:11 30.55138 -91.03740 7952 ft 171 kts 67°
2026-05-04 20:11 30.55604 -91.02462 8555 ft 172 kts 66°
2026-05-04 20:11 30.56069 -91.01195 9108 ft 174 kts 66°
2026-05-04 20:11 30.56541 -90.99899 9674 ft 175 kts 66°
2026-05-04 20:12 30.57025 -90.98590 10218 ft 177 kts 64°
2026-05-04 20:12 30.57510 -90.97262 10728 ft 180 kts 65°
2026-05-04 20:12 30.58001 -90.95912 11188 ft 182 kts 64°
2026-05-04 20:12 30.58502 -90.94557 11637 ft 184 kts 63°
2026-05-04 20:13 30.59009 -90.93175 12116 ft 187 kts 63°
2026-05-04 20:13 30.59520 -90.91776 12594 ft 189 kts 63°
2026-05-04 20:13 30.60036 -90.90364 13046 ft 191 kts 62°
2026-05-04 20:13 30.60562 -90.88934 13500 ft 194 kts 62°
2026-05-04 20:14 30.61091 -90.87485 13945 ft 196 kts 61°
2026-05-04 20:14 30.61625 -90.86021 14345 ft 198 kts 61°
2026-05-04 20:14 30.62164 -90.84546 14746 ft 199 kts 61°
2026-05-04 20:14 30.62720 -90.83027 14965 ft 215 kts 61°
2026-05-04 20:15 30.63336 -90.81343 14978 ft 237 kts 62°
2026-05-04 20:15 30.63992 -90.79521 14980 ft 252 kts 63°
2026-05-04 20:15 30.64686 -90.77603 14977 ft 263 kts 63°
2026-05-04 20:15 30.65407 -90.75624 14980 ft 269 kts 63°
2026-05-04 20:16 30.66131 -90.73633 14979 ft 273 kts 63°
2026-05-04 20:16 30.66875 -90.71588 14983 ft 275 kts 63°
2026-05-04 20:16 30.67624 -90.69532 14984 ft 277 kts 63°
2026-05-04 20:16 30.68375 -90.67467 14982 ft 278 kts 63°
2026-05-04 20:17 30.69128 -90.65394 14985 ft 278 kts 63°
2026-05-04 20:17 30.69881 -90.63317 14984 ft 279 kts 64°
2026-05-04 20:17 30.70638 -90.61237 14983 ft 279 kts 63°
2026-05-04 20:17 30.71392 -90.59161 14984 ft 279 kts 64°
2026-05-04 20:18 30.72146 -90.57077 14986 ft 279 kts 64°
2026-05-04 20:18 30.72902 -90.54994 14984 ft 279 kts 64°
2026-05-04 20:18 30.73657 -90.52910 14985 ft 279 kts 64°
2026-05-04 20:18 30.74549 -90.50955 14963 ft 275 kts 49°
2026-05-04 20:19 30.75830 -90.49359 15006 ft 267 kts 34°
2026-05-04 20:19 30.77363 -90.48210 15006 ft 259 kts 19°
2026-05-04 20:19 30.79030 -90.47473 15009 ft 256 kts 13°
2026-05-04 20:19 30.80715 -90.46773 15013 ft 257 kts 13°
2026-05-04 20:20 30.82394 -90.46061 15009 ft 257 kts 13°
2026-05-04 20:20 30.84081 -90.45351 15015 ft 258 kts 13°
2026-05-04 20:20 30.85768 -90.44644 15008 ft 258 kts 13°
2026-05-04 20:20 30.87460 -90.43937 15007 ft 258 kts 13°
2026-05-04 20:21 30.89154 -90.43226 15004 ft 258 kts 13°
2026-05-04 20:21 30.90846 -90.42515 15002 ft 258 kts 13°
2026-05-04 20:21 30.94220 -90.41094 15005 ft 258 kts 13°
2026-05-04 20:22 30.95890 -90.40394 15006 ft 258 kts 13°
2026-05-04 20:22 30.97576 -90.39683 15005 ft 257 kts 13°
2026-05-04 20:22 30.99266 -90.38974 15005 ft 258 kts 13°
2026-05-04 20:22 31.00983 -90.38250 14766 ft 267 kts 14°
2026-05-04 20:23 31.02754 -90.37502 14457 ft 274 kts 14°
2026-05-04 20:23 31.04559 -90.36738 14164 ft 278 kts 15°
2026-05-04 20:23 31.06385 -90.35964 13863 ft 280 kts 15°
2026-05-04 20:23 31.08217 -90.35194 13528 ft 280 kts 15°
2026-05-04 20:24 31.10052 -90.34420 13196 ft 280 kts 16°
2026-05-04 20:24 31.11889 -90.33646 12861 ft 280 kts 16°
2026-05-04 20:24 31.13718 -90.32871 12531 ft 279 kts 16°
2026-05-04 20:24 31.15544 -90.32102 12206 ft 278 kts 16°
2026-05-04 20:25 31.17363 -90.31333 11871 ft 278 kts 17°
2026-05-04 20:25 31.19176 -90.30560 11559 ft 277 kts 17°
2026-05-04 20:25 31.20981 -90.29803 11247 ft 276 kts 17°
2026-05-04 20:25 31.22790 -90.29043 10930 ft 275 kts 17°
2026-05-04 20:26 31.24589 -90.28277 10618 ft 274 kts 18°
2026-05-04 20:26 31.26381 -90.27513 10308 ft 273 kts 18°
2026-05-04 20:26 31.28165 -90.26762 10018 ft 272 kts 18°
2026-05-04 20:26 31.29937 -90.26022 9762 ft 268 kts 15°
2026-05-04 20:27 31.31734 -90.25689 9486 ft 264 kts
2026-05-04 20:27 31.33554 -90.25582 9332 ft 260 kts
2026-05-04 20:27 31.35351 -90.25436 9176 ft 258 kts
2026-05-04 20:27 31.37097 -90.25301 9024 ft 257 kts
2026-05-04 20:28 31.38881 -90.25166 8862 ft 257 kts
2026-05-04 20:28 31.40664 -90.25040 8709 ft 256 kts
2026-05-04 20:28 31.42446 -90.24907 8555 ft 256 kts
2026-05-04 20:28 31.44220 -90.24771 8408 ft 256 kts
2026-05-04 20:29 31.46004 -90.24635 8271 ft 257 kts
2026-05-04 20:29 31.47794 -90.24503 8137 ft 257 kts
2026-05-04 20:29 31.49552 -90.24376 8020 ft 256 kts
2026-05-04 20:29 31.51354 -90.24241 7888 ft 256 kts
2026-05-04 20:30 31.53110 -90.24113 7764 ft 256 kts
2026-05-04 20:30 31.54882 -90.23977 7639 ft 255 kts
2026-05-04 20:30 31.56654 -90.23843 7520 ft 255 kts
2026-05-04 20:30 31.58431 -90.23713 7399 ft 256 kts
2026-05-04 20:31 31.60210 -90.23583 7272 ft 256 kts
2026-05-04 20:31 31.61996 -90.23452 7152 ft 256 kts
2026-05-04 20:31 31.63773 -90.23306 7026 ft 255 kts
2026-05-04 20:31 31.65547 -90.23175 6914 ft 256 kts
2026-05-04 20:32 31.67324 -90.23044 6798 ft 256 kts
2026-05-04 20:32 31.69106 -90.22908 6667 ft 256 kts
2026-05-04 20:32 31.70885 -90.22786 6549 ft 256 kts
2026-05-04 20:32 31.72638 -90.22651 6428 ft 255 kts
2026-05-04 20:33 31.74408 -90.22515 6310 ft 255 kts
2026-05-04 20:33 31.76189 -90.22382 6190 ft 256 kts
2026-05-04 20:33 31.77964 -90.22245 6049 ft 255 kts
2026-05-04 20:33 31.79728 -90.22117 5993 ft 251 kts
2026-05-04 20:34 31.81454 -90.21988 5991 ft 247 kts
2026-05-04 20:34 31.83167 -90.21860 5982 ft 245 kts
2026-05-04 20:34 31.84867 -90.21729 5982 ft 245 kts
2026-05-04 20:34 31.86566 -90.21602 5978 ft 244 kts
2026-05-04 20:35 31.88262 -90.21491 5977 ft 244 kts
2026-05-04 20:35 31.89958 -90.21358 5979 ft 245 kts
2026-05-04 20:35 31.91659 -90.21209 5971 ft 247 kts
2026-05-04 20:35 31.93369 -90.21079 5974 ft 246 kts
2026-05-04 20:36 31.95079 -90.20965 5975 ft 246 kts
2026-05-04 20:36 31.96767 -90.20836 5975 ft 246 kts
2026-05-04 20:36 31.98477 -90.20702 5974 ft 246 kts
2026-05-04 20:36 32.00183 -90.20580 5984 ft 246 kts
2026-05-04 20:37 32.01893 -90.20454 5980 ft 246 kts
2026-05-04 20:37 32.03595 -90.20312 5988 ft 246 kts
2026-05-04 20:37 32.05304 -90.20177 5989 ft 247 kts
2026-05-04 20:37 32.07018 -90.20058 5982 ft 246 kts
2026-05-04 20:38 32.08730 -90.19940 5980 ft 245 kts
2026-05-04 20:38 32.10424 -90.19716 5984 ft 245 kts 13°
2026-05-04 20:38 32.12075 -90.19201 5984 ft 246 kts 15°
2026-05-04 20:38 32.13730 -90.18711 5983 ft 245 kts 14°
2026-05-04 20:39 32.15372 -90.18234 5941 ft 248 kts 14°
2026-05-04 20:39 32.17055 -90.17743 5836 ft 250 kts 14°
2026-05-04 20:39 32.18742 -90.17242 5742 ft 250 kts 14°
2026-05-04 20:39 32.20432 -90.16742 5644 ft 250 kts 14°
2026-05-04 20:40 32.22123 -90.16244 5543 ft 251 kts 14°
2026-05-04 20:40 32.23814 -90.15744 5442 ft 250 kts 14°
2026-05-04 20:40 32.25508 -90.15252 5318 ft 251 kts 14°
2026-05-04 20:40 32.27201 -90.14751 5195 ft 251 kts 15°
2026-05-04 20:41 32.28870 -90.14190 5065 ft 249 kts 13°
2026-05-04 20:41 32.30560 -90.13878 4938 ft 232 kts
2026-05-04 20:41 32.32082 -90.13762 4777 ft 210 kts 353°
2026-05-04 20:41 32.33392 -90.14338 4491 ft 203 kts 328°
2026-05-04 20:42 32.34590 -90.15168 4148 ft 190 kts 327°
2026-05-04 20:42 32.35670 -90.15906 3817 ft 172 kts 329°
2026-05-04 20:42 32.36721 -90.16517 3475 ft 163 kts 331°
2026-05-04 20:42 32.37730 -90.17084 3141 ft 158 kts 332°
2026-05-04 20:43 32.38711 -90.17640 2799 ft 155 kts 332°
2026-05-04 20:43 32.39674 -90.18181 2477 ft 153 kts 332°
2026-05-04 20:43 32.40619 -90.18727 2211 ft 148 kts 332°
2026-05-04 20:43 32.41541 -90.19177 2152 ft 141 kts 338°
2026-05-04 20:44 32.42487 -90.19603 2145 ft 150 kts 336°
2026-05-04 20:44 32.43487 -90.20048 2150 ft 157 kts 336°
2026-05-04 20:44 32.44507 -90.20496 2158 ft 155 kts 340°
2026-05-04 20:44 32.45560 -90.20421 2169 ft 155 kts 29°
2026-05-04 20:45 32.46050 -90.19878 2156 ft 140 kts 61°
2026-05-04 20:45 32.46343 -90.18483 2103 ft 137 kts 105°
2026-05-04 20:45 32.45967 -90.17542 2150 ft 122 kts 131°
2026-05-04 20:45 32.45570 -90.16652 2140 ft 131 kts 104°
2026-05-04 20:46 32.45723 -90.15596 2138 ft 134 kts 68°
2026-05-04 20:46 32.45947 -90.14912 2088 ft 134 kts 89°
2026-05-04 20:46 32.45782 -90.13885 2100 ft 127 kts 119°
2026-05-04 20:46 32.45267 -90.13094 2210 ft 120 kts 144°
2026-05-04 20:47 32.44518 -90.12651 2142 ft 118 kts 164°
2026-05-04 20:47 32.43740 -90.12390 2171 ft 116 kts 171°
2026-05-04 20:47 32.42955 -90.12182 2257 ft 115 kts 167°
2026-05-04 20:47 32.42182 -90.11956 2183 ft 113 kts 169°
2026-05-04 20:48 32.41395 -90.11731 2085 ft 120 kts 168°
2026-05-04 20:48 32.40590 -90.11429 1996 ft 122 kts 162°
2026-05-04 20:48 32.39832 -90.11041 1791 ft 112 kts 158°
2026-05-04 20:48 32.39135 -90.10669 1794 ft 110 kts 160°
2026-05-04 20:49 32.38402 -90.10314 1646 ft 113 kts 162°
2026-05-04 20:49 32.37667 -90.09995 1393 ft 110 kts 166°
2026-05-04 20:49 32.36971 -90.09693 1290 ft 101 kts 163°
2026-05-04 20:49 32.36320 -90.09391 1107 ft 99 kts 160°
2026-05-04 20:50 32.35671 -90.09073 1015 ft 107 kts 162°
2026-05-04 20:50 32.34935 -90.08790 984 ft 103 kts 162°
2026-05-04 20:50 32.34356 -90.08472 864 ft 87 kts 162°
2026-05-04 20:50 32.33790 -90.08209 709 ft 87 kts 163°
2026-05-04 20:51 32.33223 -90.07953 472 ft 87 kts 166°
2026-05-04 20:51 32.32697 -90.07707 332 ft 76 kts 155°
2026-05-04 20:51 32.32291 -90.07518 321 ft 52 kts 158°
2026-05-04 20:51 32.32020 -90.07391 322 ft 18 kts 154°
2026-05-04 20:52 32.31907 -90.07411 325 ft 19 kts 233°
2026-05-04 20:52 32.31881 -90.07483 323 ft 0 kts 249°
2026-05-04 20:53 32.31869 -90.07521 322 ft 9 kts 247°
2026-05-04 20:53 32.31819 -90.07555 323 ft 10 kts 166°
2026-05-04 20:53 32.31753 -90.07525 324 ft 11 kts 159°
2026-05-04 20:54 32.31681 -90.07491 326 ft 12 kts 157°
2026-05-04 20:54 32.31606 -90.07456 326 ft 12 kts 158°
2026-05-04 20:54 32.31532 -90.07420 328 ft 11 kts 159°
2026-05-04 20:54 32.31458 -90.07385 332 ft 12 kts 156°
2026-05-04 20:55 32.31379 -90.07348 333 ft 13 kts 159°
2026-05-04 20:55 32.31295 -90.07307 333 ft 13 kts 161°
2026-05-04 20:55 32.31211 -90.07267 336 ft 13 kts 159°
2026-05-04 20:55 32.31122 -90.07251 339 ft 13 kts 188°
2026-05-04 20:56 32.31049 -90.07303 340 ft 10 kts 236°
2026-05-04 20:56 32.31035 -90.07342 340 ft 3 kts 282°
2026-05-04 20:56 32.31036 -90.07348 340 ft 0 kts 283°